EW2244 Weather Reports


Display with metric or nautical units.
time (UTC)temp
F
wind
direction
speed
MPH
gust
MPH
rain 1hr
in
rain 24hr
in
rain mn
in
humidity
%
barometer
mb
20260903010145 71 134 1.0 3.0 0.00 0.00 0.00 68 1019.7
20260903005156 71 240 1.0 5.0 0.00 0.00 0.00 70 1019.7
20260903004137 71 259 0.0 2.0 0.00 0.00 0.00 67 1019.7
20260903003140 71 332 0.0 3.0 0.00 0.00 0.00 67 1019.7
20260903002128 72 186 1.0 4.0 0.00 0.00 0.00 68 1019.7
20260903001131 72 243 1.0 5.0 0.00 0.00 0.00 68 1019.7
20260903000135 72 182 2.0 3.0 0.00 0.00 0.00 69 1019.7
20260902235140 72 188 1.0 3.0 0.00 0.00 0.00 69 1019.7
20260902234129 72 128 1.0 4.0 0.00 0.00 0.00 72 1019.6
20260902233134 71 20 0.0 2.0 0.00 0.00 0.00 72 1019.6
20260902232158 72 20 0.0 3.0 0.00 0.00 0.00 71 1019.7
20260902231140 72 213 1.0 3.0 0.00 0.00 0.00 71 1019.6
20260902230128 72 165 1.0 5.0 0.00 0.00 0.00 71 1019.6
20260902225132 72 155 2.0 5.0 0.00 0.00 0.00 71 1019.6
20260902224136 73 99 0.0 3.0 0.00 0.00 0.00 71 1019.6
20260902223138 73 128 1.0 5.0 0.00 0.00 0.00 70 1019.6
20260902222127 73 132 1.0 3.0 0.00 0.00 0.00 71 1019.6
20260902221130 73 189 0.0 2.0 0.00 0.00 0.00 72 1019.5
20260902220154 73 28 1.0 3.0 0.00 0.00 0.00 72 1019.6
20260902215134 73 220 1.0 3.0 0.00 0.00 0.00 74 1019.5
20260902214136 73 148 0.0 2.0 0.00 0.00 0.00 73 1019.4
20260902213140 73 143 0.0 3.0 0.00 0.00 0.00 72 1019.4
20260902212202 73 253 1.0 5.0 0.00 0.00 0.00 72 1019.3
20260902211141 73 261 0.0 4.0 0.00 0.00 0.00 73 1019.3
20260902210138 73 236 1.0 3.0 0.00 0.00 0.00 74 1019.3
20260902205157 74 115 0.0 3.0 0.00 0.00 0.00 74 1019.3
20260902204131 74 59 0.0 2.0 0.00 0.00 0.00 73 1019.2
20260902203127 74 94 1.0 3.0 0.00 0.00 0.00 72 1019.1
20260902202126 75 82 1.0 2.0 0.00 0.00 0.00 72 1019.0
20260902201141 75 89 2.0 5.0 0.00 0.00 0.00 72 1019.0
20260902200127 74 240 0.0 3.0 0.00 0.00 0.00 73 1018.9
20260902195125 74 237 0.0 2.0 0.00 0.00 0.00 73 1018.9
20260902194139 75 238 1.0 5.0 0.00 0.00 0.00 73 1018.9
20260902193134 75 142 0.0 2.0 0.00 0.00 0.00 73 1018.8
20260902192132 75 142 0.0 2.0 0.00 0.00 0.00 73 1018.8
20260902191136 74 144 0.0 2.0 0.00 0.00 0.00 74 1018.7
20260902190136 74 144 0.0 3.0 0.00 0.00 0.00 76 1018.6
20260902185136 75 142 2.0 3.0 0.00 0.00 0.00 76 1018.5
20260902184138 75 140 0.0 1.0 0.00 0.00 0.00 75 1018.3
20260902183142 75 140 0.0 2.0 0.00 0.00 0.00 75 1018.3
20260902182143 75 126 1.0 2.0 0.00 0.00 0.00 75 1018.2
20260902181138 76 125 0.0 2.0 0.00 0.00 0.00 74 1018.2
20260902180136 77 125 0.0 1.0 0.00 0.00 0.00 73 1018.2
20260902175141 78 125 0.0 2.0 0.00 0.00 0.00 71 1018.1
20260902174141 79 124 0.0 2.0 0.00 0.00 0.00 69 1018.1
20260902173140 80 124 0.0 1.0 0.00 0.00 0.00 67 1018.0
20260902172140 81 124 0.0 0.0 0.00 0.00 0.00 63 1018.0
20260902171125 81 124 0.0 1.0 0.00 0.00 0.00 63 1018.0
20260902170126 82 124 0.0 1.0 0.00 0.00 0.00 61 1018.0
20260902165128 82 124 0.0 1.0 0.00 0.00 0.00 58 1018.0
20260902164127 83 124 0.0 2.0 0.00 0.00 0.00 57 1018.0
20260902163129 84 121 0.0 2.0 0.00 0.00 0.00 55 1018.0
20260902162129 84 179 0.0 2.0 0.00 0.00 0.00 54 1018.0
20260902161129 85 180 0.0 3.0 0.00 0.00 0.00 51 1018.0
20260902160130 85 170 0.0 2.0 0.00 0.00 0.00 51 1017.9
20260902155132 85 172 1.0 2.0 0.00 0.00 0.00 52 1018.1
20260902154140 85 172 1.0 3.0 0.00 0.00 0.00 53 1018.1
20260902153203 85 178 1.0 3.0 0.00 0.00 0.00 52 1018.2
20260902152143 85 183 0.0 5.0 0.00 0.00 0.00 53 1018.4
20260902151143 84 140 1.0 4.0 0.00 0.00 0.00 50 1018.4
20260902150128 84 195 0.0 3.0 0.00 0.00 0.00 50 1018.6
20260902145129 85 161 1.0 3.0 0.00 0.00 0.00 50 1018.7
20260902144130 86 117 1.0 3.0 0.00 0.00 0.00 54 1018.7
20260902143132 86 57 1.0 4.0 0.00 0.00 0.00 51 1018.7
20260902142132 86 87 1.0 3.0 0.00 0.00 0.00 50 1018.8
20260902141157 86 138 2.0 5.0 0.00 0.00 0.00 50 1018.8
20260902140138 86 175 0.0 2.0 0.00 0.00 0.00 50 1018.8
20260902135139 86 129 1.0 6.0 0.00 0.00 0.00 49 1018.8
20260902134201 85 259 1.0 4.0 0.00 0.00 0.00 52 1018.9
20260902133124 85 43 1.0 3.0 0.00 0.00 0.00 49 1019.0
20260902132125 85 93 2.0 4.0 0.00 0.00 0.00 51 1019.0
20260902131205 84 108 1.0 3.0 0.00 0.00 0.00 52 1019.1
20260902130125 83 102 1.0 3.0 0.00 0.00 0.00 58 1019.2
20260902125126 84 102 2.0 3.0 0.00 0.00 0.00 54 1019.4
20260902124152 84 163 1.0 3.0 0.00 0.00 0.00 55 1019.5
20260902123131 83 50 1.0 4.0 0.00 0.00 0.00 62 1019.6
20260902122132 83 86 0.0 3.0 0.00 0.00 0.00 55 1019.7
20260902121135 83 110 1.0 5.0 0.00 0.00 0.00 58 1019.7
20260902120135 83 192 1.0 5.0 0.00 0.00 0.00 58 1019.8
20260902115201 83 27 2.0 5.0 0.00 0.00 0.00 61 1019.9
20260902114141 83 72 2.0 6.0 0.00 0.00 0.00 60 1020.1
20260902113141 82 35 1.0 5.0 0.00 0.00 0.00 60 1020.1
20260902112144 82 86 0.0 3.0 0.00 0.00 0.00 61 1020.2
20260902111147 82 86 0.0 2.0 0.00 0.00 0.00 60 1020.4
20260902110146 81 86 1.0 3.0 0.00 0.00 0.00 59 1020.5
20260902105142 81 86 0.0 2.0 0.00 0.00 0.00 57 1020.6
20260902104138 80 86 0.0 2.0 0.00 0.00 0.00 58 1020.8
20260902103137 79 86 1.0 4.0 0.00 0.00 0.00 60 1020.8
20260902102157 80 65 1.0 3.0 0.00 0.00 0.00 66 1020.9
20260902101156 80 27 1.0 5.0 0.00 0.00 0.00 65 1020.9
20260902100134 80 159 0.0 3.0 0.00 0.00 0.00 62 1020.9
20260902095137 80 31 1.0 4.0 0.00 0.00 0.00 63 1020.8
20260902094139 79 28 1.0 5.0 0.00 0.00 0.00 62 1021.0
20260902093143 79 22 0.0 2.0 0.00 0.00 0.00 64 1021.1
20260902092145 78 20 3.0 4.0 0.00 0.00 0.00 64 1021.0
20260902091124 78 21 0.0 2.0 0.00 0.00 0.00 65 1021.0
20260902090125 77 21 1.0 2.0 0.00 0.00 0.00 68 1021.2
20260902085127 76 21 1.0 2.0 0.00 0.00 0.00 69 1021.1
20260902084132 76 21 0.0 2.0 0.00 0.00 0.00 69 1021.0
20260902083134 75 21 1.0 2.0 0.00 0.00 0.00 72 1021.0
20260902082134 75 20 1.0 4.0 0.00 0.00 0.00 74 1020.9
20260902081136 74 20 0.0 2.0 0.00 0.00 0.00 77 1020.9
20260902080143 74 20 0.0 0.0 0.00 0.00 0.00 74 1020.8
20260902075124 74 20 0.0 1.0 0.00 0.00 0.00 72 1020.8
20260902074126 73 20 0.0 3.0 0.00 0.00 0.00 73 1020.6
20260902073148 73 20 1.0 4.0 0.00 0.00 0.00 75 1020.6
20260902072133 72 11 1.0 4.0 0.00 0.00 0.00 74 1020.5
20260902071136 72 5 1.0 4.0 0.00 0.00 0.00 75 1020.6
20260902070138 72 26 0.0 2.0 0.00 0.00 0.00 77 1020.5
20260902065139 72 26 1.0 3.0 0.00 0.00 0.00 76 1020.4
20260902064125 72 30 0.0 3.0 0.00 0.00 0.00 77 1020.3
20260902063127 72 32 2.0 3.0 0.00 0.00 0.00 77 1020.2
20260902062129 71 360 0.0 0.0 0.00 0.00 0.00 78 1020.3
20260902061130 71 360 0.0 2.0 0.00 0.00 0.00 79 1020.2
20260902060151 70 355 0.0 1.0 0.00 0.00 0.00 80 1020.2
20260902055136 70 355 0.0 2.0 0.00 0.00 0.00 80 1020.2
20260902054138 70 355 1.0 4.0 0.00 0.00 0.00 79 1020.1
20260902053138 70 360 1.0 5.0 0.00 0.00 0.00 76 1019.8
20260902052141 70 338 0.0 3.0 0.00 0.00 0.00 77 1019.8
20260902051125 70 106 0.0 3.0 0.00 0.00 0.00 77 1019.8
20260902050127 70 202 1.0 3.0 0.00 0.00 0.00 76 1019.8
20260902045127 70 93 0.0 2.0 0.00 0.00 0.00 76 1019.8
20260902044128 70 153 0.0 2.0 0.00 0.00 0.00 77 1019.8
20260902043150 70 71 0.0 4.0 0.00 0.00 0.00 76 1019.7
20260902042134 71 113 1.0 4.0 0.00 0.00 0.00 76 1019.7
20260902041135 71 34 1.0 3.0 0.00 0.00 0.00 76 1019.7
20260902040138 70 148 0.0 3.0 0.00 0.00 0.00 75 1019.6
20260902035139 71 188 1.0 4.0 0.00 0.00 0.00 75 1019.7
20260902034125 71 128 1.0 3.0 0.00 0.00 0.00 75 1019.6
20260902033145 71 127 1.0 4.0 0.00 0.00 0.00 74 1019.6
20260902032125 71 28 0.0 3.0 0.00 0.00 0.00 74 1019.7
20260902031126 71 162 0.0 5.0 0.00 0.00 0.00 75 1019.7
20260902030150 71 28 1.0 4.0 0.00 0.00 0.00 75 1019.8
20260902025131 71 345 1.0 5.0 0.00 0.00 0.00 75 1019.7
20260902024154 71 117 1.0 5.0 0.00 0.00 0.00 77 1019.6
20260902023135 70 48 1.0 5.0 0.00 0.00 0.00 78 1019.6
20260902022136 70 321 0.0 6.0 0.00 0.00 0.00 79 1019.6
20260902021159 70 26 1.0 3.0 0.00 0.00 0.00 80 1019.7
20260902020138 70 168 1.0 3.0 0.00 0.00 0.00 81 1019.6
20260902015137 71 101 1.0 3.0 0.00 0.00 0.00 81 1019.6
20260902014159 71 5 1.0 3.0 0.00 0.00 0.00 79 1019.5
20260902013139 70 273 1.0 3.0 0.00 0.00 0.00 78 1019.5
20260902012146 71 238 0.0 2.0 0.00 0.00 0.00 79 1019.5
20260902011126 70 238 1.0 4.0 0.00 0.00 0.00 78 1019.5